{"data":{"norad_id":58098,"intl_designator":"2023-161B","name":"STARLINK-30614","alt_names":[],"object_type":"PAYLOAD","status":"ACTIVE","operator":null,"country":"US","launch_date":"2023-10-21","launch_site_code":"AFWTR","launch_vehicle":null,"mission":null,"orbit_class":"UNKNOWN","rcs_meters":null,"size_class":null,"mass_kg":null,"dimensions":null,"purposes":["comms"],"wikipedia_slug":null,"has_3d_model":false,"image_url":null,"decayed_at":null,"tle_current":{"epoch":"2026-09-20T22:12:59.737824Z","epoch_age_seconds":103707,"freshness":"FRESH","line1":"1 58098U 23161B   26263.92569141  .00000581  00000+0  28340-4 0  9993","line2":"2 58098  53.1636 335.8123 0001189  85.4805 274.6333 15.34389410164355","mean_motion":15.3438941,"eccentricity":0.0001189,"inclination_deg":53.1636,"raan_deg":335.8123,"arg_perigee_deg":85.4805,"mean_anomaly_deg":274.6333,"bstar":2.834e-5,"rev_number":16435,"period_min":93.848405796805,"perigee_km":461.92133645283,"apogee_km":463.54809574692,"semimajor_km":6840.8717160999,"source":"CELESTRAK","updated_at":"2026-09-21T09:00:33.786054Z"}}}